Location: Franzen
(48.6167°N, 15.3833°E)
Time: 09:31:44
(UTC+00:00)

A-11 Canister half - Pass Details

Date: 06 August 2021
Orbit: 1515 x 1685 km, 47.2° (Epoch: 21 September)

Event Time Altitude Azimuth Distance (km) Brightness Sun altitude
Rises 19:05:03 0° 283° (WNW) 4,851 13.2 -6.1°
Reaches altitude 10° 19:08:10 10° 281° (W) 3,883 12.4 -6.5°
Maximum altitude 19:18:03 69° 201° (SSW) 1,770 9.3 -7.8°
Enters shadow 19:28:03 10° 121° (ESE) 3,926 10.5 -9.2°
Drops below altitude 10° 19:28:06 10° 121° (ESE) 3,946 - -9.2°
Sets 19:31:17 0° 119° (ESE) 4,932 - -9.6°
